Location: Artiguedieu
(43.5000°N, 0.5454°E)
Time: 13:10:00
(UTC+00:00)

Cosmos 2154 Rocket - Pass Details

Date: 06 December 2020
Orbit: 965 x 997 km, 82.9° (Epoch: 28 January)

Event Time Altitude Azimuth Distance (km) Brightness Sun altitude
Rises 04:45:09 0° 181° (S) 3,653 7.1 -26.6°
Reaches altitude 10° 04:47:38 10° 180° (S) 2,714 6.4 -26.2°
Maximum altitude 04:53:51 79° 95° (E) 1,004 4.1 -25.0°
Drops below altitude 10° 05:00:09 10° 10° (N) 2,754 6.4 -23.9°
Sets 05:02:42 0° 10° (N) 3,711 7.1 -23.5°
